Regional Weather Roundup
Issued by NWS

Home | Current Version | Previous Version | Graphics & Text | Print | Product List | Glossary Off
Versions: 1 2 3 4 5 6 7 8 9 10 11 12 13 14 15 16 17 18 19 20 21 22 23 24 25 26 27 28 29 30 31 32 33 34 35 36 37 38 39 40 41 42 43 44 45 46 47 48 49 50

000
ASUS43 KTOP 300308
RWRKS

WEATHER ROUNDUP FOR KANSAS
NATIONAL WEATHER SERVICE GOODLAND KS
1000 PM CDT SAT APR 29 2017

NOTE:  "FAIR" INDICATES FEW OR NO CLOUDS BELOW 12,000 FEET WITH NO
SIGNIFICANT WEATHER AND/OR OBSTRUCTIONS TO VISIBILITY.

KSZ001>006-013>018-027>032-041>047-300400-
NORTHWEST KANSAS

CITY           SKY/WX    TMP DP  RH WIND       PRES   REMARKS
GOODLAND       LGT SNOW  33  32  96 N22G30    30.03S FOG     WCI  21
HAYS           MIX PCPN  37  36  96 N22G31    29.95R WCI  26
HILL CITY      RAIN      36  35  96 N17G24    30.02R FOG     WCI  26
RUSSELL        LGT RAIN  40  38  93 N18       29.88F FOG     WCI  31
$$

KSZ061>065-074>080-084>089-300400-
SOUTHWEST KANSAS

CITY           SKY/WX    TMP DP  RH WIND       PRES   REMARKS
DODGE CITY     RAIN      35  34  96 N35G43    29.83S FOG     WCI  21
ELKHART          N/A    N/A N/A N/A MISG        N/A
GARDEN CITY    CLOUDY    34  32  92 N23G30    29.93R WCI  22
GREAT BEND     RAIN      40  39  97 N20G25    29.91R WCI  30
LIBERAL        LGT RAIN  33  33 100 N29G35    29.86F FOG     WCI  19
PRATT          DRIZZLE   38  37  95 N24G33    29.83R WCI  27
$$

KSZ066>073-081>083-090>101-300400-
SOUTHEAST KANSAS

CITY           SKY/WX    TMP DP  RH WIND       PRES   REMARKS
CHANUTE        RAIN      57  54  89 E23G30    29.61R
COFFEYVILLE    TSTM      58  57  97 NE18G28   29.64S
HUTCHINSON     LGT RAIN  44  42  93 NE17G29   29.77R FOG
MEDICINE LODGE   N/A    N/A N/A N/A N16G26    29.80R
NEWTON         LGT RAIN  43  42  97 NE21G29   29.75S FOG
PARSONS        TSTM      60  57  89 E9G21     29.71R FOG
WICHITA INTL   LGT RAIN  46  45  96 N22G29    29.73R FOG
WICHITA JABRA  CLOUDY    45  44  97 NE23G31   29.72R
WICHITA MCCONL CLOUDY    46  44  93 NE18G25   29.72R
WINFIELD       CLOUDY    49  46  90 N18G28    29.68S
$$

KSZ007>012-019>026-033>040-048>060-102>105-300400-
NORTHEAST KANSAS

CITY           SKY/WX    TMP DP  RH WIND       PRES   REMARKS
CONCORDIA      LGT RAIN  41  40  96 NE21G36   29.88F FOG
EMPORIA        CLOUDY    45  45 100 NE17G26   29.76R
LAWRENCE       LGT RAIN  44  43  96 NE31G38   29.70F FOG
MANHATTAN      LGT RAIN  44  42  93 NE20G30   29.83F FOG
MARYSVILLE     LGT RAIN  41  41 100 NE22G31   29.90F
OLATHE IND     RAIN      45  44  97 NE13      29.82R FOG
OLATHE EXE     RAIN      44  44 100 N12       29.83R
SALINA         LGT RAIN  44  41  89 NE16G25   29.84S FOG
TOPEKA BILLARD LGT RAIN  45  45 100 NE18G31   29.75F
TOPEKA FORBES  LGT RAIN  45  43  93 NE22G31   29.73F
$$




USA.gov is the U.S. government's official web portal to all federal, state and local government web resources and services.